H1 CPF 2 NER 2022 4 3 9 093 01 glonass121 H2 1000702 9121 36401 2022 4 3 0 0 0 2022 4 6 23 45 0 900 1 1 0 0 0 1 H9 10 0 59672 0.00000 0 25030663.219 14087.675 -5204664.162 10 0 59672 900.00000 0 24178629.719 -101838.608 -8305371.619 10 0 59672 1800.00000 0 22957278.525 -79964.984 -11245815.830 10 0 59672 2700.00000 0 21406000.091 125335.959 -13969223.618 10 0 59672 3600.00000 0 19574531.657 551077.400 -16422962.551 10 0 59672 4500.00000 0 17520976.066 1223867.775 -18559542.937 10 0 59672 5400.00000 0 15309490.823 2158555.112 -20337526.558 10 0 59672 6300.00000 0 13007741.006 3357363.929 -21722325.668 10 0 59672 7200.00000 0 10684219.442 4809562.618 -22686877.389 10 0 59672 8100.00000 0 8405543.242 6491677.953 -23212180.499 10 0 59672 9000.00000 0 6233837.209 8368251.155 -23287683.651 10 0 59672 9900.00000 0 4224311.751 10393107.755 -22911516.228 10 0 59672 10800.00000 0 2423135.594 12511092.234 -22090555.564 10 0 59672 11700.00000 0 865692.181 14660198.773 -20840326.896 10 0 59672 12600.00000 0 -424706.380 16774012.205 -19184735.333 10 0 59672 13500.00000 0 -1437592.566 18784359.455 -17155632.311 10 0 59672 14400.00000 0 -2175569.589 20624061.744 -14792222.228 10 0 59672 15300.00000 0 -2653978.990 22229672.199 -12140318.603 10 0 59672 16200.00000 0 -2900022.030 23544082.944 -9251462.481 10 0 59672 17100.00000 0 -2951370.867 24518890.073 -6181919.304 10 0 59672 18000.00000 0 -2854327.864 25116414.226 -2991573.824 10 0 59672 18900.00000 0 -2661611.596 25311288.645 257254.562 10 0 59672 19800.00000 0 -2429865.018 25091544.835 3501051.287 10 0 59672 20700.00000 0 -2216993.893 24459147.589 6676374.210 10 0 59672 21600.00000 0 -2079451.565 23429955.218 9721121.852 10 0 59672 22500.00000 0 -2069588.694 22033106.031 12575774.510 10 0 59672 23400.00000 0 -2233183.746 20309857.457 15184581.094 10 0 59672 24300.00000 0 -2607261.920 18311928.173 17496666.117 10 0 59672 25200.00000 0 -3218297.173 16099415.169 19467033.429 10 0 59672 26100.00000 0 -4080874.780 13738376.000 21057446.016 10 0 59672 27000.00000 0 -5196871.334 11298180.301 22237164.582 10 0 59672 27900.00000 0 -6555186.338 8848743.799 22983531.184 10 0 59672 28800.00000 0 -8132035.346 6457762.234 23282387.908 10 0 59672 29700.00000 0 -9891790.624 4188061.347 23128324.434 10 0 59672 30600.00000 0 -11788332.042 2095173.045 22524752.016 10 0 59672 31500.00000 0 -13766849.626 225237.331 21483804.950 10 0 59672 32400.00000 0 -15766020.733 -1386685.206 20026073.912 10 0 59672 33300.00000 0 -17720469.843 -2717823.390 18180178.576 10 0 59672 34200.00000 0 -19563407.752 -3758381.338 15982189.708 10 0 59672 35100.00000 0 -21229340.421 -4511675.741 13474913.362 10 0 59672 36000.00000 0 -22656735.491 -4993722.709 10707051.914 10 0 59672 36900.00000 0 -23790536.832 -5232294.886 7732258.631 10 0 59672 37800.00000 0 -24584424.215 -5265491.007 4608103.895 10 0 59672 38700.00000 0 -25002726.183 -5139879.747 1394972.456 10 0 59672 39600.00000 0 -25021908.417 -4908296.589 -1845087.919 10 0 59672 40500.00000 0 -24631577.401 -4627386.192 -5049545.536 10 0 59672 41400.00000 0 -23834958.972 -4354992.785 -8156570.488 10 0 59672 42300.00000 0 -22648832.380 -4147506.908 -11106205.787 10 0 59672 43200.00000 0 -21102922.675 -4057278.461 -13841503.260 10 0 59672 44100.00000 0 -19238775.874 -4130203.237 -16309604.133 10 0 59672 45000.00000 0 -17108162.228 -4403583.082 -18462745.125 10 0 59672 45900.00000 0 -14771071.841 -4904348.853 -20259172.112 10 0 59672 46800.00000 0 -12293383.304 -5647720.911 -21663944.855 10 0 59672 47700.00000 0 -9744299.497 -6636364.359 -22649617.807 10 0 59672 48600.00000 0 -7193654.382 -7860076.427 -23196783.932 10 0 59672 49500.00000 0 -4709200.180 -9296021.939 -23294470.458 10 0 59672 50400.00000 0 -2353985.961 -10909510.453 -22940377.646 10 0 59672 51300.00000 0 -183935.416 -12655286.404 -22140954.192 10 0 59672 52200.00000 0 1754275.643 -14479282.090 -20911305.449 10 0 59672 53100.00000 0 3424953.073 -16320763.549 -19274933.649 10 0 59672 54000.00000 0 4804655.943 -18114782.244 -17263312.383 10 0 59672 54900.00000 0 5882950.965 -19794831.546 -14915300.919 10 0 59672 55800.00000 0 6662616.285 -21295597.130 -12276407.484 10 0 59672 56700.00000 0 7159284.269 -22555685.195 -9397914.096 10 0 59672 57600.00000 0 7400537.001 -23520212.060 -6335878.991 10 0 59672 58500.00000 0 7424491.879 -24143143.540 -3150036.069 10 0 59672 59400.00000 0 7277937.334 -24389282.422 97386.413 10 0 59672 60300.00000 0 7014098.721 -24235816.987 3342903.199 10 0 59672 61200.00000 0 6690131.082 -23673362.281 6523038.892 10 0 59672 62100.00000 0 6364447.947 -22706447.904 9575596.800 10 0 59672 63000.00000 0 6094002.744 -21353430.313 12440902.038 10 0 59672 63900.00000 0 5931641.516 -19645833.060 15062991.676 10 0 59672 64800.00000 0 5923642.347 -17627143.448 17390726.247 10 0 59672 65700.00000 0 6107548.333 -15351117.839 19378799.117 10 0 59672 66600.00000 0 6510387.539 -12879669.110 20988622.844 10 0 59672 67500.00000 0 7147356.004 -10280427.346 22189075.107 10 0 59672 68400.00000 0 8021019.182 -7624078.300 22957090.242 10 0 59672 69300.00000 0 9121064.417 -4981592.853 23278086.232 10 0 59672 70200.00000 0 10424613.118 -2421464.244 23146220.767 10 0 59672 71100.00000 0 11897077.420 -7068.340 22564473.744 10 0 59672 72000.00000 0 13493523.092 2205743.962 21544557.086 10 0 59672 72900.00000 0 15160479.549 4170724.049 20106656.133 10 0 59672 73800.00000 0 16838119.574 5852889.092 18279009.860 10 0 59672 74700.00000 0 18462716.538 7229706.013 16097340.006 10 0 59672 75600.00000 0 19969276.106 8291750.641 13604141.626 10 0 59672 76500.00000 0 21294232.914 9042818.606 10847849.725 10 0 59672 77400.00000 0 22378100.600 9499487.029 7881898.580 10 0 59672 78300.00000 0 23167966.127 9690148.569 4763691.821 10 0 59672 79200.00000 0 23619726.148 9653560.659 1553502.597 10 0 59672 80100.00000 0 23699973.933 9436972.132 -1686675.849 10 0 59672 81000.00000 0 23387460.105 9093906.489 -4894308.355 10 0 59672 81900.00000 0 22674067.482 8681694.417 -8007503.674 10 0 59672 82800.00000 0 21565260.182 8258858.149 -10966186.736 10 0 59672 83700.00000 0 20079988.526 7882456.124 -13713236.692 10 0 59672 84600.00000 0 18250052.914 7605497.780 -16195570.640 10 0 59672 85500.00000 0 16118951.822 7474535.471 -18365153.772 10 0 59673 0.00000 0 13740259.898 7527533.449 -20179917.836 10 0 59673 900.00000 0 11175599.509 7792102.875 -21604572.214 10 0 59673 1800.00000 0 8492290.346 8284177.052 -22611290.161 10 0 59673 2700.00000 0 5760767.321 9007183.792 -23180260.331 10 0 59673 3600.00000 0 3051874.271 9951751.641 -23300089.848 10 0 59673 4500.00000 0 434142.256 11095965.194 -22968050.928 10 0 59673 5400.00000 0 -2028835.973 12406162.170 -22190164.390 10 0 59673 6300.00000 0 -4280827.129 13838242.573 -20981116.101 10 0 59673 7200.00000 0 -6275073.278 15339438.500 -19364005.383 10 0 59673 8100.00000 0 -7976013.551 16850473.435 -17369927.512 10 0 59673 9000.00000 0 -9360538.327 18308022.599 -15037395.699 10 0 59673 9900.00000 0 -10418721.520 19647372.088 -12411611.527 10 0 59673 10800.00000 0 -11153998.392 20805164.947 -9543596.238 10 0 59673 11700.00000 0 -11582779.735 21722117.336 -6489198.759 10 0 59673 12600.00000 0 -11733517.517 22345588.054 -3307999.714 10 0 59673 13500.00000 0 -11645261.145 22631890.077 -62133.540 10 0 59673 14400.00000 0 -11365765.966 22548243.172 3184946.725 10 0 59673 15300.00000 0 -10949235.636 22074281.839 6369735.488 10 0 59673 16200.00000 0 -10453796.455 21203052.030 9429944.004 10 0 59673 17100.00000 0 -9938813.739 19941452.457 12305745.408 10 0 59673 18000.00000 0 -9462167.337 18310100.774 14940968.093 10 0 59673 18900.00000 0 -9077605.024 16342630.210 17284211.693 10 0 59673 19800.00000 0 -8832288.704 14084447.138 19289861.998 10 0 59673 20700.00000 0 -8764639.354 11591003.596 20918983.839 10 0 59673 21600.00000 0 -8902572.994 8925659.366 22140074.270 10 0 59673 22500.00000 0 -9262202.293 6157225.449 22929661.996 10 0 59673 23400.00000 0 -9847057.736 3357293.772 23272742.586 10 0 59673 24300.00000 0 -10647859.485 597466.000 23163042.997 10 0 59673 25200.00000 0 -11642847.326 -2053402.398 22603112.538 10 0 59673 26100.00000 0 -12798652.290 -4531828.414 21604241.016 10 0 59673 27000.00000 0 -14071670.929 -6782090.244 20186208.153 10 0 59673 27900.00000 0 -15409882.441 -8758281.594 18376871.402 10 0 59673 28800.00000 0 -16755030.878 -10425949.168 16211602.112 10 0 59673 29700.00000 0 -18045080.111 -11763248.989 13732582.489 10 0 59673 30600.00000 0 -19216838.624 -12761577.334 10987977.867 10 0 59673 31500.00000 0 -20208644.797 -13425653.782 8031000.860 10 0 59673 32400.00000 0 -20963001.481 -13773056.435 4918885.372 10 0 59673 33300.00000 0 -21429051.255 -13833231.534 1711789.740 10 0 59673 34200.00000 0 -21564790.630 -13646020.887 -1528350.701 10 0 59673 35100.00000 0 -21338932.448 -13259769.908 -4739000.831 10 0 59673 36000.00000 0 -20732340.063 -12729095.659 -7858211.619 10 0 59673 36900.00000 0 -19738974.505 -12112407.918 -10825793.497 10 0 59673 37800.00000 0 -18366315.278 -11469285.932 -13584456.470 10 0 59673 38700.00000 0 -16635236.804 -10857819.314 -16080896.884 10 0 59673 39600.00000 0 -14579344.579 -10332022.985 -18266811.541 10 0 59673 40500.00000 0 -12243796.454 -9939432.942 -20099821.128 10 0 59673 41400.00000 0 -9683655.408 -9718982.650 -21544286.287 10 0 59673 42300.00000 0 -6961839.202 -9699248.667 -22572001.161 10 0 59673 43200.00000 0 -4146748.652 -9897139.490 -23162751.188 10 0 59673 44100.00000 0 -1309669.738 -10317083.898 -23304723.816 10 0 59673 45000.00000 0 1477945.437 -10950754.981 -22994763.024 10 0 59673 45900.00000 0 4147208.253 -11777344.259 -22238460.978 10 0 59673 46800.00000 0 6634421.801 -12764377.668 -21050082.771 10 0 59673 47700.00000 0 8883498.917 -13869042.542 -19452323.085 10 0 59673 48600.00000 0 10848068.982 -15039972.977 -17475896.766 10 0 59673 49500.00000 0 12493184.493 -16219421.051 -15158968.512 10 0 59673 50400.00000 0 13796554.252 -17345724.126 -12546430.501 10 0 59673 51300.00000 0 14749249.577 -18355964.833 -9689040.170 10 0 59673 52200.00000 0 15355851.948 -19188710.925 -6642433.880 10 0 59673 53100.00000 0 15634034.264 -19786717.552 -3466035.569 10 0 59673 54000.00000 0 15613592.540 -20099475.184 -221882.363 10 0 59673 54900.00000 0 15334968.935 -20085492.211 3026608.392 10 0 59673 55800.00000 0 14847329.534 -19714212.263 6215904.256 10 0 59673 56700.00000 0 14206280.179 -18967481.964 9283627.564 10 0 59673 57600.00000 0 13471319.774 -17840504.375 12169802.288 10 0 59673 58500.00000 0 12703142.075 -16342236.061 14818050.580 10 0 59673 59400.00000 0 11960903.524 -14495210.225 17176713.162 10 0 59673 60300.00000 0 11299575.791 -12334793.484 19199869.778 10 0 59673 61200.00000 0 10767497.426 -9907908.747 20848238.560 10 0 59673 62100.00000 0 10404229.625 -7271279.513 22089936.510 10 0 59673 63000.00000 0 10238807.138 -4489271.217 22901086.800 10 0 59673 63900.00000 0 10288457.531 -1631422.082 23266262.266 10 0 59673 64800.00000 0 10557841.263 1230231.771 23178758.446 10 0 59673 65700.00000 0 11038842.283 4023924.433 22640693.060 10 0 59673 66600.00000 0 11710915.265 6680905.994 21662932.544 10 0 59673 67500.00000 0 12541972.006 9138052.651 20264849.558 10 0 59673 68400.00000 0 13489767.120 11340234.387 18473918.439 10 0 59673 69300.00000 0 14503722.607 13242344.345 16325158.464 10 0 59673 70200.00000 0 15527113.167 14810908.841 13860437.207 10 0 59673 71100.00000 0 16499519.801 16025214.726 11127648.480 10 0 59673 72000.00000 0 17359448.753 16877910.866 8179781.290 10 0 59673 72900.00000 0 18047006.677 17375062.267 5073897.783 10 0 59673 73800.00000 0 18506521.134 17535657.658 1870039.372 10 0 59673 74700.00000 0 18688998.242 17390593.484 -1369918.694 10 0 59673 75600.00000 0 18554316.263 16981178.368 -4583443.528 10 0 59673 76500.00000 0 18073064.862 16357221.188 -7708530.508 10 0 59673 77400.00000 0 17227954.267 15574782.600 -10684877.663 10 0 59673 78300.00000 0 16014735.973 14693683.182 -13455027.836 10 0 59673 79200.00000 0 14442596.387 13774871.162 -15965458.467 10 0 59673 80100.00000 0 12534005.989 12877758.171 -18167599.669 10 0 59673 81000.00000 0 10324028.466 12057632.864 -20018762.476 10 0 59673 81900.00000 0 7859115.949 11363259.197 -21482960.553 10 0 59673 82800.00000 0 5195437.297 10834758.922 -22531610.069 10 0 59673 83700.00000 0 2396805.384 10501866.712 -23144094.446 10 0 59673 84600.00000 0 -467714.142 10382631.539 -23308182.501 10 0 59673 85500.00000 0 -3326416.594 10482620.102 -23020290.799 10 0 59674 0.00000 0 -6107688.542 10794657.801 -22285583.483 10 0 59674 900.00000 0 -8742744.804 11299121.054 -21117904.920 10 0 59674 1800.00000 0 -11168255.669 11964771.257 -19539544.995 10 0 59674 2700.00000 0 -13328760.142 12750098.893 -17580837.489 10 0 59674 3600.00000 0 -15178760.089 13605123.546 -15279597.568 10 0 59674 4500.00000 0 -16684407.723 14473576.020 -12680406.620 10 0 59674 5400.00000 0 -17824713.592 15295371.556 -9833756.597 10 0 59674 6300.00000 0 -18592222.226 16009269.577 -6795069.368 10 0 59674 7200.00000 0 -18993125.045 16555606.317 -3623610.051 10 0 59674 8100.00000 0 -19046804.364 16878982.499 -381316.151 10 0 59674 9000.00000 0 -18784827.095 16930789.287 2868433.145 10 0 59674 9900.00000 0 -18249430.970 16671462.163 6062081.162 10 0 59674 10800.00000 0 -17491568.627 16072363.866 9137164.048 10 0 59674 11700.00000 0 -16568594.517 15117213.584 12033559.439 10 0 59674 12600.00000 0 -15541695.368 13802999.619 14694686.118 10 0 59674 13500.00000 0 -14473176.128 12140335.436 17068628.748 10 0 59674 14400.00000 0 -13423719.261 10153243.576 19109163.781 10 0 59674 15300.00000 0 -12449735.920 7878377.036 20776665.238 10 0 59674 16200.00000 0 -11600922.762 5363712.067 22038872.399 10 0 59674 17100.00000 0 -10918128.365 2666768.955 22871504.920 10 0 59674 18000.00000 0 -10431619.033 -147562.687 23258714.572 10 0 59674 18900.00000 0 -10159815.719 -3009501.464 23193366.719 10 0 59674 19800.00000 0 -10108553.088 -5847049.887 22677148.320 10 0 59674 20700.00000 0 -10270889.037 -8588756.002 21720502.820 10 0 59674 21600.00000 0 -10627469.533 -11166446.308 20342395.730 10 0 59674 22500.00000 0 -11147430.263 -13517817.459 18569917.740 10 0 59674 23400.00000 0 -11789794.404 -15588780.974 16437735.068 10 0 59674 24300.00000 0 -12505305.504 -17335466.260 13987399.261 10 0 59674 25200.00000 0 -13238616.985 -18725801.970 11266530.820 10 0 59674 26100.00000 0 -13930745.623 -19740613.346 8327893.034 10 0 59674 27000.00000 0 -14521686.077 -20374193.336 5228373.891 10 0 59674 27900.00000 0 -14953077.508 -20634326.932 2027895.226 10 0 59674 28800.00000 0 -15170811.691 -20541770.271 -1211730.663 10 0 59674 29700.00000 0 -15127474.775 -20129208.076 -4427976.190 10 0 59674 30600.00000 0 -14784521.954 -19439734.120 -7558784.363 10 0 59674 31500.00000 0 -14114095.234 -18524918.238 -10543744.172 10 0 59674 32400.00000 0 -13100409.028 -17442540.090 -13325234.725 10 0 59674 33300.00000 0 -11740645.849 -16254083.233 -15849517.979 10 0 59674 34200.00000 0 -10045324.003 -15022092.530 -18067760.663 10 0 59674 35100.00000 0 -8038120.460 -13807503.493 -19936967.248 10 0 59674 36000.00000 0 -5755153.838 -12667053.368 -21420807.139 10 0 59674 36900.00000 0 -3243754.355 -11650880.741 -22490320.798 10 0 59674 37800.00000 0 -560768.329 -10800413.126 -23124491.334 10 0 59674 38700.00000 0 2229536.129 -10146630.697 -23310670.066 10 0 59674 39600.00000 0 5057878.829 -9708779.472 -23044846.677 10 0 59674 40500.00000 0 7852595.843 -9493589.226 -22331757.083 10 0 59674 41400.00000 0 10542379.911 -9495031.044 -21184824.641 10 0 59674 42300.00000 0 13059020.563 -9694627.219 -19625933.292 10 0 59674 43200.00000 0 15340030.634 -10062303.254 -17685034.250 10 0 59674 44100.00000 0 17331049.352 -10557748.676 -15399591.178 10 0 59674 45000.00000 0 18987920.355 -11132231.448 -12813872.261 10 0 59674 45900.00000 0 20278355.795 -11730790.773 -9978101.104 10 0 59674 46800.00000 0 21183114.484 -12294715.942 -6947481.820 10 0 59674 47700.00000 0 21696642.258 -12764205.670 -3781117.103 10 0 59674 48600.00000 0 21827145.669 -13081093.526 -540840.999 10 0 59674 49500.00000 0 21596094.639 -13191521.305 2710009.402 10 0 59674 50400.00000 0 21037174.648 -13048443.810 5907857.094 10 0 59674 51300.00000 0 20194733.395 -12613855.368 8990155.751 10 0 59674 52200.00000 0 19121789.164 -11860640.401 11896640.067 10 0 59674 53100.00000 0 17877687.542 -10773966.870 14570528.422 10 0 59674 54000.00000 0 16525508.461 -9352161.586 16959651.900 10 0 59674 54900.00000 0 15129336.193 -7607029.258 19017485.599 10 0 59674 55800.00000 0 13751510.448 -5563601.733 20704060.833 10 0 59674 56700.00000 0 12449976.745 -3259328.638 21986740.029 10 0 59674 57600.00000 0 11275849.071 -742744.839 22840839.680 10 0 59674 58500.00000 0 10271287.722 1928327.650 23250090.353 10 0 59674 59400.00000 0 9467780.736 4688966.215 23206926.661 10 0 59674 60300.00000 0 8884899.230 7469629.822 22712603.804 10 0 59674 61200.00000 0 8529576.190 10198832.168 21777140.890 10 0 59674 62100.00000 0 8395935.710 12805894.199 20419094.641 10 0 59674 63000.00000 0 8465676.271 15223662.027 18665170.218 10 0 59674 63900.00000 0 8708988.637 17391078.498 16549678.718 10 0 59674 64800.00000 0 9085966.798 19255503.722 14113853.465 10 0 59674 65700.00000 0 9548450.436 20774690.833 11405039.354 10 0 59674 66600.00000 0 10042220.032 21918337.879 8475771.570 10 0 59674 67500.00000 0 10509451.797 22669154.570 5382761.495 10 0 59674 68400.00000 0 10891329.484 23023402.548 2185808.899 10 0 59674 69300.00000 0 11130704.225 22990889.283 -1053339.357 10 0 59674 70200.00000 0 11174692.078 22594418.126 -4272163.419 10 0 59674 71100.00000 0 10977101.769 21868718.617 -7408556.262 10 0 59674 72000.00000 0 10500592.204 20858902.092 -10402000.014 10 0 59674 72900.00000 0 9718470.514 19618506.883 -13194712.047 10 0 59674 73800.00000 0 8616055.753 18207213.497 -15732740.623 10 0 59674 74700.00000 0 7191551.069 16688323.609 -17966990.662 10 0 59674 75600.00000 0 5456386.791 15126106.185 -19854161.441 10 0 59674 76500.00000 0 3435018.066 13583119.321 -21357579.321 10 0 59674 77400.00000 0 1164182.726 12117617.815 -22447910.098 10 0 59674 78300.00000 0 -1308353.168 10781153.188 -23103737.461 10 0 59674 79200.00000 0 -3925513.768 9616465.557 -23311995.908 10 0 59674 80100.00000 0 -6623028.252 8655755.394 -23068248.691 10 0 59674 81000.00000 0 -9331857.779 7919408.099 -22376803.720 10 0 59674 81900.00000 0 -11980836.796 7415226.239 -21250662.984 10 0 59674 82800.00000 0 -14499421.018 7138203.666 -19711303.904 10 0 59674 83700.00000 0 -16820428.936 7070853.360 -17788294.112 10 0 59674 84600.00000 0 -18882662.753 7184077.607 -15518744.394 10 0 59674 85500.00000 0 -20633298.357 7438546.077 -12946608.056 10 0 59675 0.00000 0 -22029942.564 7786525.104 -10121838.728 10 0 59675 900.00000 0 -23042269.779 8174081.870 -7099420.190 10 0 59675 1800.00000 0 -23653164.944 8543569.420 -3938290.789 10 0 59675 2700.00000 0 -23859324.842 8836286.568 -700178.841 10 0 59675 3600.00000 0 -23671288.541 8995197.193 2551623.014 10 0 59675 4500.00000 0 -23112895.374 8967590.784 5753519.878 10 0 59675 5400.00000 0 -22220193.126 8707567.904 8842885.475 10 0 59675 6300.00000 0 -21039843.413 8178241.715 11759314.138 10 0 59675 7200.00000 0 -19627093.480 7353559.103 14445826.462 10 0 59675 8100.00000 0 -18043402.636 6219661.791 16850002.511 10 0 59675 9000.00000 0 -16353826.404 4775728.164 18925018.482 10 0 59675 9900.00000 0 -14624271.654 3034259.628 20630565.209 10 0 59675 10800.00000 0 -12918740.867 1020799.591 21933630.211 10 0 59675 11700.00000 0 -11296683.247 -1226902.128 22809128.426 10 0 59675 12600.00000 0 -9810564.846 -3660242.786 23240370.435 10 0 59675 13500.00000 0 -8503759.375 -6221579.639 23219360.932 10 0 59675 14400.00000 0 -7408846.715 -8846424.770 22746923.805 10 0 59675 15300.00000 0 -6546388.029 -11465928.736 21832653.882 10 0 59675 16200.00000 0 -5924225.581 -14009548.697 20494698.808 10 0 59675 17100.00000 0 -5537332.890 -16407789.882 18759377.576 10 0 59675 18000.00000 0 -5368217.764 -18594906.934 16660645.205 10 0 59675 18900.00000 0 -5387857.713 -20511454.351 14239415.530 10 0 59675 19800.00000 0 -5557125.499 -22106582.122 11542756.303 10 0 59675 20700.00000 0 -5828642.714 -23339983.669 8622972.829 10 0 59675 21600.00000 0 -6148982.156 -24183418.017 5536597.897 10 0 59675 22500.00000 0 -6461125.983 -24621745.715 2343307.046 10 0 59675 23400.00000 0 -6707076.686 -24653437.974 -895220.647 10 0 59675 24300.00000 0 -6830512.128 -24290540.054 -4116475.588 10 0 59675 25200.00000 0 -6779374.479 -23558091.851 -7258303.411 10 0 59675 26100.00000 0 -6508285.873 -22493030.578 -10260082.244 10 0 59675 27000.00000 0 -5980690.698 -21142621.133 -13063870.715 10 0 59675 27900.00000 0 -5170635.603 -19562478.669 -15615506.459 10 0 59675 28800.00000 0 -4064112.952 -17814264.499 -17865635.654 10 0 59675 29700.00000 0 -2659910.901 -15963149.200 -19770655.336 10 0 59675 30600.00000 0 -969933.061 -14075146.502 -21293551.535 10 0 59675 31500.00000 0 981027.899 -12214426.880 -22404617.765 10 0 59675 32400.00000 0 3156056.498 -10440720.850 -23082040.252 10 0 59675 33300.00000 0 5507392.290 -8806918.822 -23312338.174 10 0 59675 34200.00000 0 7978170.054 -7356966.919 -23090649.345 10 0 59675 35100.00000 0 10504553.810 -6124146.615 -22420854.175 10 0 59675 36000.00000 0 13018179.374 -5129810.856 -21315533.314 10 0 59675 36900.00000 0 15448806.462 -4382631.076 -19795757.229 10 0 59675 37800.00000 0 17727071.681 -3878388.624 -17890709.055 10 0 59675 38700.00000 0 19787228.284 -3600321.483 -15637145.297 10 0 59675 39600.00000 0 21569757.772 -3520013.875 -13078702.475 10 0 59675 40500.00000 0 23023742.672 -3598792.881 -10265061.279 10 0 59675 41400.00000 0 24108898.834 -3789574.141 -7250983.248 10 0 59675 42300.00000 0 24797179.187 -4039078.686 -4095238.510 10 0 59675 43200.00000 0 25073878.813 -4290326.138 -859445.944 10 0 59675 44100.00000 0 24938192.320 -4485296.708 2393150.192 10 0 59675 45000.00000 0 24403198.208 -4567646.413 5598941.084 10 0 59675 45900.00000 0 23495270.022 -4485357.005 8695224.387 10 0 59675 46800.00000 0 22252939.251 -4193204.732 11621457.725 10 0 59675 47700.00000 0 20725259.167 -3654939.855 14320467.197 10 0 59675 48600.00000 0 18969740.645 -2845081.735 16739584.715 10 0 59675 49500.00000 0 17049949.614 -1750251.323 18831689.957 10 0 59675 50400.00000 0 15032870.202 -369983.586 20556135.173 10 0 59675 51300.00000 0 12986147.206 1283014.696 21879534.358 10 0 59675 52200.00000 0 10975325.838 3183172.058 22776401.767 10 0 59675 53100.00000 0 9061205.982 5292910.112 23229628.374 10 0 59675 54000.00000 0 7297422.020 7564014.298 23230788.821 10 0 59675 54900.00000 0 5728348.670 9939458.381 22780275.066 10 0 59675 55800.00000 0 4387418.514 12355604.669 21887256.590 10 0 59675 56700.00000 0 3295918.613 14744686.888 20569470.451 10 0 59675 57600.00000 0 2462312.917 17037471.572 18852847.614 10 0 59675 58500.00000 0 1882114.925 19165987.118 16770984.856 10 0 59675 59400.00000 0 1538311.930 21066207.814 14364474.128 10 0 59675 60300.00000 0 1402319.500 22680582.672 11680103.471 10 0 59675 61200.00000 0 1435423.236 23960305.912 8769945.625 10 0 59675 62100.00000 0 1590645.135 24867237.141 5690352.011 10 0 59675 63000.00000 0 1814955.005 25375393.826 2500871.129 10 0 59675 63900.00000 0 2051733.704 25471956.489 -736888.532 10 0 59675 64800.00000 0 2243385.173 25157746.920 -3960430.380 10 0 59675 65700.00000 0 2333988.608 24447161.005 -7107555.330 10 0 59675 66600.00000 0 2271880.764 23367559.913 -10117539.954 10 0 59675 67500.00000 0 2012061.420 21958144.972 -12932286.358 10 0 59675 68400.00000 0 1518322.260 20268362.504 -15497423.513 10 0 59675 69300.00000 0 765010.640 18355903.610 -17763340.560 10 0 59675 70200.00000 0 -261645.646 16284380.239 -19686133.746 10 0 59675 71100.00000 0 -1562708.966 14120771.891 -21228449.996 10 0 59675 72000.00000 0 -3126234.242 11932746.754 -22360211.547 10 0 59675 72900.00000 0 -4927518.276 9785966.461 -23059207.939 10 0 59675 73800.00000 0 -6929888.988 7741484.685 -23311543.556 10 0 59675 74700.00000 0 -9086005.456 5853346.666 -23111931.011 10 0 59675 75600.00000 0 -11339618.540 4166489.020 -22463823.111 10 0 59675 76500.00000 0 -13627722.525 2715027.659 -21379378.668 10 0 59675 77400.00000 0 -15883011.198 1521006.293 -19879260.288 10 0 59675 78300.00000 0 -18036538.295 593659.378 -17992265.297 10 0 59675 79200.00000 0 -20020472.523 -70777.682 -15754794.247 10 0 59675 80100.00000 0 -21770832.047 -488701.082 -13210164.898 10 0 59675 81000.00000 0 -23230082.986 -688227.632 -10407783.070 10 0 59675 81900.00000 0 -24349490.971 -707777.396 -7402185.218 10 0 59675 82800.00000 0 -25091124.335 -594209.342 -4251971.059 10 0 59675 83700.00000 0 -25429421.721 -400589.369 -1018647.532 10 0 59675 84600.00000 0 -25352255.209 -183686.712 2234592.036 10 0 59675 85500.00000 0 -24861441.679 -1307.195 5444127.509 99